EW7651 Weather Reports


time (UTC)temp
F
wind
direction
speed
knots
gust
knots
rain 1hr
in
rain 24hr
in
rain mn
in
humidity
%
barometer
mb
20260510113032 65 17 0.0 0.0 0.00 0.00 0.00 50 1012.3
20260510111528 65 336 0.0 0.9 0.00 0.00 0.00 44 1012.5
20260510110025 65 242 0.0 2.6 0.00 0.00 0.00 39 1012.7
20260510104518 64 259 0.0 0.0 0.00 0.00 0.00 40 1012.8
20260510103015 64 265 0.0 0.0 0.00 0.00 0.00 41 1012.9
20260510101516 64 141 0.0 3.5 0.00 0.00 0.00 34 1013.1
20260510100008 63 197 0.0 0.0 0.00 0.00 0.00 37 1013.2
20260510094503 63 215 0.0 0.0 0.00 0.00 0.00 42 1013.2
20260510093102 62 190 0.0 0.0 0.00 0.00 0.00 40 1013.4
20260510091557 62 228 0.0 0.9 0.00 0.00 0.00 32 1013.4
20260510090053 62 289 0.0 0.0 0.00 0.00 0.00 31 1013.5
20260510084548 62 198 0.0 0.0 0.00 0.00 0.00 31 1013.4
20260510083052 61 182 0.0 0.0 0.00 0.00 0.00 53 1013.7
20260510081545 60 246 0.0 0.0 0.00 0.00 0.00 52 1013.9
20260510080038 59 208 0.0 0.0 0.00 0.00 0.00 52 1013.9
20260510074534 58 136 0.0 2.6 0.00 0.00 0.00 50 1013.9
20260510073029 58 193 0.0 0.0 0.00 0.00 0.00 40 1014.0
20260510071535 57 171 0.0 0.0 0.00 0.00 0.00 29 1014.0
20260510070024 56 190 0.0 0.0 0.00 0.00 0.00 27 1014.1
20260510064520 56 207 0.0 0.0 0.00 0.00 0.00 25 1014.0
20260510063022 55 210 0.0 0.9 0.00 0.00 0.00 18 1014.0
20260510061519 54 209 0.0 0.0 0.00 0.00 0.00 1 1014.1
20260510060007 53 239 0.0 0.0 0.00 0.00 0.00 1 1014.1
20260510054506 52 155 0.0 0.0 0.00 0.00 0.00 1 1014.1
20260510053059 52 82 0.0 0.0 0.00 0.00 0.00 1 1013.9
20260510051555 51 193 0.0 0.0 0.00 0.00 0.00 1 1014.0
20260510050052 51 32 0.0 0.0 0.00 0.00 0.00 1 1014.0
20260510044549 51 153 0.0 0.0 0.00 0.00 0.00 1 1014.0
20260510043047 51 167 0.0 0.0 0.00 0.00 0.00 1 1014.0
20260510041540 51 146 0.0 0.0 0.00 0.00 0.00 1 1014.0
20260510040036 51 222 0.0 0.0 0.00 0.00 0.00 1 1014.0
20260510034538 51 225 0.0 0.0 0.00 0.00 0.00 1 1013.9
20260510033027 51 242 0.0 0.0 0.00 0.00 0.00 1 1013.8
20260510031537 51 182 0.0 0.0 0.00 0.00 0.00 1 1014.0
20260510030024 51 242 0.0 0.0 0.00 0.00 0.00 1 1014.0
20260510024639 51 98 0.0 0.0 0.00 0.00 0.00 1 1014.1
20260510023013 51 96 0.0 0.0 0.00 0.00 0.00 1 1014.2
20260510021508 51 142 0.0 0.0 0.00 0.00 0.00 1 1014.3
20260510020006 51 97 0.0 0.0 0.00 0.00 0.00 1 1014.3
20260510014503 51 105 0.0 0.0 0.00 0.00 0.00 1 1014.3
20260510013059 51 117 0.0 0.0 0.00 0.00 0.00 1 1014.3
20260510011557 51 138 0.0 0.0 0.00 0.00 0.00 1 1014.2
20260510010053 52 138 0.0 0.0 0.00 0.00 0.00 1 1014.3
20260510004550 52 138 0.0 0.0 0.00 0.00 0.00 1 1014.4
20260510003102 52 138 0.0 0.0 0.00 0.00 0.00 1 1014.7
20260510001542 53 138 0.0 0.0 0.00 0.00 0.00 1 1014.8
20260510000043 53 119 0.0 0.0 0.00 0.00 0.00 1 1014.9
20260509234543 54 248 0.0 0.0 0.00 0.00 0.00 1 1014.9
20260509233030 54 248 0.0 0.0 0.00 0.00 0.00 1 1014.8
20260509231531 54 166 0.0 0.0 0.00 0.00 0.00 1 1014.8
20260509230029 54 155 0.0 0.0 0.00 0.00 0.00 1 1014.8
20260509224519 54 87 0.0 0.0 0.00 0.00 0.00 1 1014.8
20260509223014 54 42 0.0 0.0 0.00 0.00 0.00 1 1014.9
20260509221510 54 42 0.0 0.0 0.00 0.00 0.00 1 1014.9
20260509220008 55 42 0.0 0.0 0.00 0.00 0.00 1 1014.9
20260509214504 55 42 0.0 0.0 0.00 0.00 0.00 1 1014.8
20260509213101 55 42 0.0 0.0 0.00 0.00 0.00 1 1014.9
20260509211603 55 42 0.0 0.0 0.00 0.00 0.00 1 1014.8
20260509210056 56 284 0.0 0.0 0.00 0.00 0.00 4 1014.9
20260509204548 56 284 0.0 0.0 0.00 0.00 0.00 13 1014.9
20260509203044 57 284 0.0 0.0 0.00 0.00 0.00 24 1014.8
20260509201540 57 309 0.0 0.0 0.00 0.00 0.00 33 1014.7
20260509200037 57 304 0.0 0.0 0.00 0.00 0.00 40 1014.8
20260509194536 58 152 0.0 0.0 0.00 0.00 0.00 44 1014.7
20260509193029 58 265 0.0 0.0 0.00 0.00 0.00 50 1014.6
20260509191526 59 166 0.0 0.0 0.00 0.00 0.00 53 1014.5
20260509190022 59 195 0.0 0.0 0.00 0.00 0.00 54 1014.4
20260509184518 60 192 0.0 0.0 0.00 0.00 0.00 53 1014.4
20260509183022 61 190 0.0 0.0 0.00 0.00 0.00 52 1014.3
20260509181510 61 247 0.0 0.0 0.00 0.00 0.00 50 1014.2
20260509180005 62 241 0.0 0.0 0.00 0.00 0.00 49 1014.0
20260509174505 63 252 0.0 0.0 0.00 0.00 0.00 49 1014.1
20260509173104 64 232 0.0 0.0 0.00 0.00 0.00 49 1014.1
20260509171558 65 254 0.0 0.0 0.00 0.00 0.00 48 1014.3
20260509170054 66 246 0.0 0.0 0.00 0.00 0.00 49 1014.3
20260509164553 67 234 0.0 0.0 0.00 0.00 0.00 47 1014.4
20260509163042 69 35 0.0 0.0 0.00 0.00 0.00 47 1014.2
20260509161538 70 201 0.0 0.0 0.00 0.00 0.00 45 1014.2
20260509160035 70 242 0.0 0.0 0.00 0.00 0.00 44 1014.2
20260509154531 70 241 0.0 0.0 0.00 0.00 0.00 44 1014.1
20260509153027 72 240 0.0 0.0 0.00 0.00 0.00 43 1014.1
20260509151523 73 240 0.0 0.0 0.00 0.00 0.00 42 1014.2
20260509150021 74 191 0.0 0.0 0.00 0.00 0.00 41 1014.3
20260509144528 74 197 0.0 0.0 0.00 0.00 0.00 42 1014.4
20260509143013 73 161 0.0 0.0 0.00 0.00 0.00 45 1014.5
20260509141508 74 308 0.0 0.0 0.00 0.00 0.00 42 1014.6
20260509140006 72 254 0.0 0.0 0.00 0.00 0.00 44 1014.7
20260509134603 72 249 0.0 0.0 0.00 0.00 0.00 44 1014.8
20260509133102 73 217 0.0 0.0 0.00 0.00 0.00 43 1015.1
20260509131552 72 323 0.0 0.0 0.00 0.00 0.00 45 1015.1
20260509130052 70 360 0.0 0.0 0.00 0.00 0.00 44 1015.3
20260509124545 72 281 0.0 0.0 0.00 0.00 0.00 43 1015.5
20260509123042 72 266 0.0 0.0 0.00 0.00 0.00 45 1015.6
20260509121538 71 258 0.0 0.0 0.00 0.00 0.00 45 1015.8
20260509120035 72 360 0.0 0.0 0.00 0.00 0.00 44 1015.8
20260509114532 71 211 0.0 0.0 0.00 0.00 0.00 46 1015.8